Погода в Сивашовке

Украина / Херсонская область     46°15′15″N   34°25′51″E
В апреле 2022 года жителям России запретили посещать сайт meteo.paraplan.net по решению Генеральной прокуратуры. Аудитория сайта уменьшилась в 10 раз. Владельцы сайта не видят смысла в поддержке погодного сервера в таких условиях. Сайт будет закрыт в октябре.
темп.,
°C
ветер,
м/с
пор.,
м/с
влажн.,
%
обл.,
%
осадки,
мм/ч
давл.,
гПа
погр.,
м
3 октября, пн
пн300:00+13зсз813731 0.0 1007816
03:00+12з712724 0.0 1008589
06:00+12з612740 0.0 1010466
09:00+15з710575 0.0 10111302
12:00+18з8114532 0.0 10122019
15:00+19зюз7944100 0.0 10121944
18:00+16юз5758100 0.3 1012291
21:00+15ююз467077 0.7 1012134
4 октября, вт
вт400:00+14зюз36755 1.5 1012151
03:00+14зюз357997 2.0 101290
06:00+13зсз22815 0.1 101219
09:00+14ссз22670 0.1 1014235
12:00+18з33490 0.0 10151095
15:00+19з55432 0.0 10151422
18:00+17з57562 0.0 1017355
21:00+14сз49530 0.0 1019252
5 октября, ср
ср500:00+12сз36580 0.0 1020128
03:00+11зсз34580 0.0 102265
06:00+10зсз34625 0.0 102360
09:00+13зсз355569 0.0 1024303
12:00+17з57435 0.0 10241531
15:00+19з67349 0.0 10242287
18:00+16сз474216 0.0 1025226
21:00+15зсз465393 0.0 1026135
6 октября, чт
чт600:00+13зсз3458100 0.0 102659
03:00+12ссз3462100 0.0 102671
06:00+11ссв3472100 0.0 102788
09:00+13ссв2264100 0.0 1027222
12:00+17ссз234699 0.0 1027922
15:00+19зюз234054 0.0 10261141
18:00+16зюз33515 0.0 102693
21:00+15зсз225818 0.0 102733
7 октября, пт
пт700:00+14з126011 0.0 102713
03:00+13зсз226087 0.0 102613
06:00+12сз226299 0.0 102613
09:00+16ссз2248100 0.0 1026171
12:00+20сз2237100 0.0 1025861
15:00+21ссз133478 0.0 10241497
18:00+19св124513 0.0 102326
21:00+16св345911 0.0 102384